Regional Weather Roundup
Issued by NWS

Home | Current Version | Previous Version | Graphics & Text | Print | Product List | Glossary On
Versions: 1 2 3 4 5 6 7 8 9 10 11 12 13 14 15 16 17 18 19 20 21 22 23 24 25 26 27 28 29 30 31 32 33 34 35 36 37 38 39 40 41 42 43 44 45 46 47 48 49 50
000
ASUS45 KSLC 210610
RWRUT

UTAH REGIONAL WEATHER ROUNDUP
NATIONAL WEATHER SERVICE SALT LAKE CITY UT
1200 AM MDT FRI JUL 21 2017

UTZ001>011-023>025-210700-

NORTHERN UTAH

CITY           SKY/WX    TMP DP  RH WIND       PRES   REMARKS
BRIGHAM CITY   CLOUDY    84  46  25 NW5       30.00S
HILL AFB       CLOUDY    82  52  34 S12       30.04R
LOGAN          CLOUDY    74  61  63 CALM      30.04R
OGDEN          CLOUDY    84  52  33 S10       30.00R
SALT LAKE CITY CLOUDY    84  54  35 SE10      29.98R
TOOELE VALLEY  CLOUDY    82  52  34 S10       29.99R
WENDOVER       PTCLDY    77  56  48 SE6       30.00R
HEBER CITY     MOCLDY    70  50  49 CALM      30.13R
WEST JORDAN    CLOUDY    79  63  57 S18       30.04R

$$

UTZ011>015-024>027-210700-

CENTRAL/NORTHEAST UTAH

CITY           SKY/WX    TMP DP  RH WIND       PRES   REMARKS
PROVO AIRPORT  MOCLDY    76  54  46 S9        30.06R
MOAB/CANYONLAN CLOUDY    73  64  73 N8        30.09S
DELTA          MOCLDY    77  46  33 W7        30.08S
PRICE          MOCLDY    72  53  51 E8        30.21F
ROOSEVELT      CLOUDY    70  52  52 N5        30.15S
VERNAL         CLEAR     71  53  52 NW6       30.14S

$$

UTZ013>016-019>022-027-210700-

SOUTHERN UTAH

CITY           SKY/WX    TMP DP  RH WIND       PRES   REMARKS
BRYCE CANYON   CLEAR     57  53  86 W7        30.34F
CEDAR CITY     PTCLDY    69  46  43 SW5       30.17R
MILFORD        PTCLDY    76  50  40 S13       30.10S
ST GEORGE      MOCLDY    85  48  27 SE7       29.96F
HANKSVILLE     CLOUDY    73  54  49 W3        30.12R
BLANDING       CLOUDY    63  60  91 N10       30.34F

$$

REGIONAL REPORTS     COLORADO/ARIZONA

CITY           SKY/WX    TMP DP  RH WIND       PRES   REMARKS
CRAIG, CO      PTCLDY    66  48  52 SE5       30.21F
GRAND JUNCTION CLOUDY    75  54  47 E6        30.13F
RIFLE, CO      CLOUDY    68  58  70 E7        30.20F
MONTROSE, CO   CLOUDY    70  52  52 SE5       30.24R
CORTEZ, CO     CLOUDY    64  57  78 E6        30.26R
COLORADO CITY    N/A     70  59  68 SE3       30.16S
PAGE, AZ       MOCLDY    82  53  36 CALM      30.07S
GRAND CANYON   MOCLDY    65  57  75 CALM      30.29S
KINGMAN, AZ    CLEAR     77  60  55 SE16      30.05S
FLAGSTAFF, AZ  CLOUDY    57  54  89 CALM      30.32F

$$

REGIONAL REPORTS    NEVADA/IDAHO/WYOMING

CITY           SKY/WX    TMP DP  RH WIND       PRES   REMARKS
LAS VEGAS, NV  MOCLDY    91  59  33 S3        29.88S HX  90
ELY, NY        CLOUDY    64  61  90 SW6       30.19F
ELKO, NV       PTCLDY    75  16  10 CALM      30.10R
POCATELLO, ID  CLOUDY    74  36  25 S10       30.06R
BURLEY, ID     CLEAR     64  46  52 SW8       30.03R
FORT BRIDGER,    N/A     68  51  54 NE3       30.27F
EVANSTON, WY   CLOUDY    68  51  54 W6        30.24S
ROCK SPRINGS,  LGT RAIN  62  55  77 SE15      30.24R
KEMMERER, WY     N/A    N/A N/A N/A E3        30.26S

$$



USA.gov is the U.S. government's official web portal to all federal, state and local government web resources and services.